TimeCST,TemperatureF,Dew PointF,Humidity,Sea Level PressureIn,VisibilityMPH,Wind Direction,Wind SpeedMPH,Gust SpeedMPH,PrecipitationIn,Events,Conditions,WindDirDegrees,DateUTC
12:53 AM,34.0,32.0,92,30.05,9.0,Calm,Calm,-,N/A,,Clear,0,2014-03-08 06:53:00
1:53 AM,35.1,32.0,89,30.04,9.0,Calm,Calm,-,N/A,,Clear,0,2014-03-08 07:53:00
2:53 AM,33.1,30.0,89,30.05,10.0,Calm,Calm,-,N/A,,Clear,0,2014-03-08 08:53:00
3:53 AM,30.9,28.9,92,30.06,5.0,Calm,Calm,-,N/A,,Clear,0,2014-03-08 09:53:00
4:53 AM,32.0,28.9,88,30.09,7.0,Calm,Calm,-,N/A,,Clear,0,2014-03-08 10:53:00
5:53 AM,30.9,28.9,92,30.10,6.0,Calm,Calm,-,N/A,,Clear,0,2014-03-08 11:53:00
6:53 AM,30.9,28.0,89,30.12,5.0,Calm,Calm,-,N/A,,Clear,0,2014-03-08 12:53:00
7:53 AM,41.0,37.0,86,30.14,10.0,Calm,Calm,-,N/A,,Clear,0,2014-03-08 13:53:00
8:53 AM,54.0,44.1,69,30.12,10.0,SSW,9.2,-,N/A,,Clear,210,2014-03-08 14:53:00
9:53 AM,57.0,43.0,59,30.14,10.0,SW,11.5,-,N/A,,Clear,230,2014-03-08 15:53:00
10:53 AM,60.1,44.1,55,30.14,10.0,WSW,15.0,-,N/A,,Clear,240,2014-03-08 16:53:00
11:53 AM,62.1,45.0,53,30.13,10.0,WSW,9.2,-,N/A,,Partly Cloudy,250,2014-03-08 17:53:00
12:53 PM,62.1,43.0,50,30.11,10.0,WNW,10.4,19.6,N/A,,Partly Cloudy,290,2014-03-08 18:53:00
1:53 PM,64.0,44.1,48,30.09,10.0,SSW,10.4,-,N/A,,Mostly Cloudy,210,2014-03-08 19:53:00
2:53 PM,64.0,43.0,46,30.09,10.0,West,9.2,-,N/A,,Partly Cloudy,270,2014-03-08 20:53:00
3:53 PM,64.0,42.1,45,30.09,10.0,WSW,8.1,-,N/A,,Clear,250,2014-03-08 21:53:00
4:53 PM,61.0,45.0,56,30.10,10.0,NNW,10.4,-,N/A,,Scattered Clouds,330,2014-03-08 22:53:00
5:53 PM,55.9,45.0,67,30.14,10.0,NNW,13.8,-,N/A,,Clear,330,2014-03-08 23:53:00
6:53 PM,53.1,44.1,71,30.15,10.0,North,12.7,17.3,N/A,,Partly Cloudy,350,2014-03-09 00:53:00
7:53 PM,50.0,39.0,66,30.19,10.0,North,12.7,-,N/A,,Overcast,360,2014-03-09 01:53:00
8:53 PM,48.0,39.0,71,30.21,8.0,North,9.2,-,N/A,,Overcast,350,2014-03-09 02:53:00
9:53 PM,46.0,39.0,76,30.22,6.0,North,10.4,-,N/A,,Haze,350,2014-03-09 03:53:00
10:53 PM,44.1,37.0,76,30.23,5.0,North,9.2,-,N/A,,Haze,360,2014-03-09 04:53:00
11:53 PM,43.0,37.0,80,30.23,4.0,North,10.4,-,N/A,,Haze,360,2014-03-09 05:53:00